Hourly Data Report for February 11, 2020

MAYO A
YUKON TERRITORY
Current Station Operator: NAVCAN

63°36'59.000" N
135°52'06.000" W
503.80 m
2100701
71965
YMA

Download Data

Hourly Data (February 2020)
Hourly Data Report for February 11, 2020
TIME
LST
Temp Definition
°C
Dew Point Definition
°C
Rel Hum Definition
%
Precip. Amount Definition
mm

Wind Dir Definition
10's deg

Wind Spd Definition
km/h
Visibility Definition
km
Stn Press Definition
kPa
Hmdx Definition


Wind Chill Definition


Weather Definition


00:00 -21.7 -24.2 81   31 4 32.2 95.45   -25 LegendNANA
01:00 -23.0 -25.7 79   36 1 32.2 95.58   -24 Clear
02:00 -24.1 -26.8 78   4 3 32.2 95.73   -27 LegendNANA
03:00 -22.2 -24.8 80   8 4 24.1 95.87   -26 Snow
04:00 -15.4 -17.3 85   21 8 16.1 96.05   -21 Snow
05:00 -15.7 -17.7 85   21 7 24.1 96.16   -21 Snow Grains
06:00 -17.2 -19.4 83   18 5 32.2 96.19   -21 LegendNANA
07:00 -17.9 -20.1 83   20 5 32.2 96.32   -22 Mostly Cloudy
08:00 -18.4 -20.9 82   20 7 32.2 96.39   -24 LegendNANA
09:00 -19.5 -22.2 79   23 10 32.2 96.48   -27 LegendNANA
10:00 -20.1 -23.1 77   20 4 32.2 96.52   -24 Mainly Clear
11:00 -19.1 -23.1 71   18 4 32.2 96.57   -22 LegendNANA
12:00 -18.4 -23.0 68   21 8 32.2 96.57   -24 LegendNANA
13:00 -17.4 -22.8 63   21 8 32.2 96.61   -23 Mainly Clear
14:00 -16.9 -22.8 61   21 6 32.2 96.61   -21 LegendNANA
15:00 -16.7 -23.1 59   23 9 32.2 96.59   -23 LegendNANA
16:00 -17.1 -22.6 62   23 6 32.2 96.55   -22 Mainly Clear
17:00 -22.0 -24.8 79   7 3 32.2 96.51   -25 LegendNANA
18:00 -23.9 -26.3 81   30 4 32.2 96.51   -28 LegendNANA
19:00 -25.8 -28.2 81   28 3 32.2 96.48   -29 Clear
20:00 -25.4 -28.2 78   36 3 32.2 96.48   -28 LegendNANA
21:00 -30.1 -33.0 76   36 2 32.2 96.43   -32 LegendNANA
22:00 -29.4 -31.9 79   36 3 32.2 96.34   -33 Clear
23:00 -32.6 -35.8 74   4 7 32.2 96.30   -40 LegendNANA

Notes on Data Quality.

Legend

  • E = Estimated
  • M = Missing
  • NA = Not Available*
  • [empty] = Indicates an unobserved value
Date modified: